Flag for Germany Weather past 2 weeks in Kassel, Hesse, Germany

Now
72 °F

Passing clouds.


Feels Like: 74 °F
Forecast: 61 / 80 °F
Wind: 7 mph from Northwest

Location: Kassel / Calden

Current Time: Jul 22, 2014 at 11:51:17 AM

Latest Report: Jul 22, 2014 at 11:20 AM


Visibility: N/A

Pressure: 30.04 "Hg

Humidity: 73%

Dew point: 63 °F

Location of KasselLocation

Historic Weather in Kassel — Graph

°F

Kassel temperature yesterday

Maximum temperature yesterday: 72 °F (at 1:50 PM)
Minimum temperature yesterday: 64 °F (at 5:50 AM)
Average temperature yesterday: 69 °F

Past Weeks' High & Low Weather Summary

 TemperatureHumidityPressure
High90 °F (Jul 19, 4:50 PM)100% (Jul 8, 6:20 AM)30.21 "Hg (Jul 8, 6:20 AM)
Low52 °F (Jul 9, 6:50 AM)31% (Jul 19, 1:20 PM)29.65 "Hg (Jul 9, 7:50 AM)
Average69 °F72%29.94 "Hg
* Reported Jul 7 10:20 AM — Jul 22 10:20 AM, Kassel, Weather by CustomWeather, © 2014

Note: Actual official high and low records may vary slightly from our data, if they occured in-between our weather recording intervals... More about our weather records

Advertising

Kassel weather history for previous 24 hours

 ConditionsComfort  
Time TempWeatherWind HumidityBarometerVisibility
10:20 AM
Jul 22
68 °FSunny.12 mph78%30.04 "Hg10 mi
9:50 AM68 °FPassing clouds.9 mph78%30.04 "HgN/A
9:20 AM66 °FSunny.8 mph83%30.01 "Hg10 mi
8:50 AM66 °FSunny.8 mph83%30.01 "Hg10 mi
8:20 AM64 °FSunny.8 mph88%30.01 "Hg10 mi
7:50 AM64 °FSunny.5 mph88%30.01 "Hg10 mi
7:20 AM63 °FSunny.3 mph94%30.01 "Hg10 mi
6:50 AM63 °FSunny.2 mph88%30.01 "Hg10 mi
6:20 AM63 °FClear.2 mph94%29.98 "Hg10 mi
5:50 AM63 °FPassing clouds.5 mph88%29.98 "HgN/A
9:50 PM
Jul 21
70 °FBroken clouds.7 mph88%29.92 "Hg4 mi
9:20 PM70 °FBroken clouds.9 mph88%29.92 "Hg4 mi
8:50 PM70 °FBroken clouds.7 mph88%29.92 "Hg5 mi
8:20 PM72 °FPartly sunny.8 mph83%29.92 "Hg5 mi
7:50 PM72 °FPartly sunny.7 mph83%29.92 "Hg5 mi
7:20 PM72 °FBroken clouds.7 mph83%29.92 "Hg5 mi
6:50 PM72 °FPartly sunny.7 mph83%29.92 "Hg4 mi
6:20 PM72 °FPartly sunny.7 mph83%29.92 "Hg4 mi
5:50 PM72 °FPartly sunny.10 mph83%29.89 "Hg4 mi
5:20 PM72 °FPartly sunny.8 mph83%29.89 "Hg4 mi
4:50 PM72 °FPartly sunny.8 mph83%29.89 "Hg4 mi
4:20 PM72 °FPartly sunny.8 mph83%29.89 "Hg4 mi
3:50 PM72 °FPartly sunny.8 mph83%29.89 "HgN/A
3:20 PM72 °FPartly sunny.8 mph83%29.89 "HgN/A
2:50 PM70 °FPartly sunny.8 mph88%29.89 "HgN/A
2:20 PM72 °FPartly sunny.8 mph83%29.89 "HgN/A
1:50 PM72 °FPartly sunny.7 mph83%29.89 "HgN/A
1:20 PM70 °FPartly sunny.9 mph88%29.89 "HgN/A
12:50 PM68 °FPartly sunny.8 mph94%29.86 "Hg6 mi
12:20 PM68 °FMostly cloudy.8 mph94%29.89 "Hg4 mi
11:50 AM68 °FCloudy.2 mph94%29.86 "Hg6 mi
11:20 AM68 °FMore clouds than sun.3 mph94%29.86 "Hg4 mi
Weather by CustomWeather, © 2014

See weather overviewHow to use our weather pages